FMNNFMMI

Guest
Details From FMNN - Fascene
To FMMI - Ivato
Flight Number -
Tags Generated
Created
Modified
Stats Distance 333 nm / 617 km
Max Altitude 0 ft / 0 m
Waypoints 3
Social Downloads 0
Likes 0
Share VATSIM

Download

Looking for another format? Having issues loading an existing format? Contact us
Advertisement - Login to hide

Notes

Generated

Route

FMNN IA FMMI

ID Type Via Altitude Latitude Longitude Leg Dist Tot Dist Heading (true) Name
O FMNN APT - 0 ft / 0 m -13.31932˚ 48.30791˚ - 0 nm - -
IA NDB - 0 ft / 0 m -18.79336˚ 47.45492˚ 332 nm 332 nm 188° / 189° ANTANANARIVO IVATO NDB
O FMMI APT - 0 ft / 0 m -18.79479˚ 47.46427˚ 0 nm 332 nm 99° / 99° -

Altitude Profile

Advertisement - Login to hide

Weather


0- 5 10 15 20 25 30 35+ Temperature / ° C

Clouds and Precipitation
Forecast for 2017-12-17 18:00 UTC. Updated 33 minutes ago

Ground ~20,000 ft ~40,000 ft Winds

FMNN

Details ICAO FMNN (NOS)
Name FASCENE
Region Comoros, Mayotte, Réunion and Madagascar
Timezone Indian/Antananarivo (UTC+3.0)
Stats Elevation 36 ft / 11 m (AMSL)
Location -13.312067° 48.314821°
Runways 1
Magnetic Variation 9.466° W

METAR

FMNN 171300Z 04006KT 9999 FEW020CB SCT100 30/25 Q1010

Decode

TAF

Not found

Departure Runways

ID Width Length Bearing (true) Bearing (mag) Surface Threshold Offset Overrun Length
05 148 ft / 45 m 7,220 ft / 2,201 m 42.86° 52.33° Asphalt 0 ft / 0 m 164 ft / 50 m
23 148 ft / 45 m 7,220 ft / 2,201 m 222.85° 232.32° Asphalt 0 ft / 0 m 197 ft / 60 m

FMMI

Details ICAO FMMI (TNR)
Name IVATO
Region Comoros, Mayotte, Réunion and Madagascar
Timezone Indian/Antananarivo (UTC+3.0)
Stats Elevation 4,198 ft / 1,280 m (AMSL)
Location -18.796950° 47.478806°
Runways 1
Magnetic Variation 15.161° W

METAR

FMMI 171330Z 09008KT 060V140 9999 SCT017CB 25/15 Q1019 NOSIG

Decode

TAF

TAF FMMI 171100Z 1712/1818 13010KT 9999 SCT017 BKN020= TAF FMCH 171100Z 1712/1818 30008KT 9999 SCT020TCU SCT030 PROB30 TEMPO 1712/1717 4000 TS SHRA BKN015CB PROB30 TEMPO 1718/1724 4000 SHRA

Decode

Destination Runways

ID Width Length Bearing (true) Bearing (mag) Surface Threshold Offset Overrun Length
11 148 ft / 45 m 10,167 ft / 3,099 m 98.92° 114.08° Asphalt 0 ft / 0 m 90 ft / 27 m
29 148 ft / 45 m 10,167 ft / 3,099 m 278.91° 294.07° Asphalt 0 ft / 0 m 90 ft / 27 m

Approach Navaids

Runway Type Ident Frequency Range Bearing (true) Bearing (mag) Slope Elevation
11 Localiser IO 109.50 MHz 18 nm / 33 km 98.89° 114.05° - 4,125 ft / 1,257 m (AMSL)
11 Glidescope IO 109.50 MHz 10 nm / 19 km 98.91° 114.07° 3.00° 4,198 ft / 1,280 m (AMSL)

Popular Alternatives